SCP
0 -0 -0 -0 -0 0 0 -0 0 -0 -0 0 -0 -0 0 -0 0 0 -0 -1 1 0 1 3 2 0 0 0 0 0 0 0 0 0 0 0 0 0 0 0 0 0 0 0
-0 0 0 0 0 0 0 0 0 0 0 0 0 -0 -0 -0 0 0 0 -0 0 0 1 0 0 0 0 0 0 0 0 0 0 0 0 0 0 0 0 0 0 0 0 0
0 0 -0 0 0 0 0 0 0 0 0 0 0 0 -0 -0 0 0 0 -0 0 0 1 1 0 0 0 0 0 0 0 0 0 0 0 0 0 0 0 0 0 0 0 0
0 -0 0 0 0 0 -0 0 0 0 0 -0 -0 0 -0 -0 0 0 0 0 1 0 0 0 0 0 0 0 0 0 0 0 0 0 0 0 0 0 0 0 0 0 0 0
0 0 0 0 0 -0 -0 -0 0 0 -0 0 -0 0 0 -0 0 0 0 0 0 0 0 0 0 0 0 0 0 0 0 0 0 0 0 0 0 0 0 0 0 0 0 0
0 0 0 0 -0 0 0 0 0 -0 -0 -0 -0 0 0 0 0 0 0 0 0 0 0 0 0 0 0 0 0 0 0 0 0 0 0 0 0 0 0 0 0 0 0 0
0 0 0 -0 -0 0 -0 0 -0 -0 -0 -0 0 0 1 0 0 0 0 0 0 0 0 0 0 0 0 0 0 0 0 0 0 0 0 0 0 0 0 0 0 0 0 0
0 0 0 -0 0 -0 0 -0 -0 -0 -0 -0 0 0 0 0 0 0 0 0 0 0 0 0 0 0 0 0 0 0 0 0 0 0 0 0 0 0 0 0 0 0 0 0
0 0 -0 -0 0 0 0 -0 -0 0 0 0 0 0 0 0 0 0 0 0 0 0 0 0 0 0 0 0 0 0 0 0 0 0 0 0 0 0 0 0 0 0 0 0
0 0 -0 -0 0 -0 -0 0 0 0 0 0 0 0 0 0 0 0 0 0 0 0 0 0 0 0 0 0 0 0 0 0 0 0 0 0 0 0 0 -0 0 0 0 0
0 0 0 -0 -0 0 0 0 0 0 0 0 0 0 0 0 0 0 0 0 0 0 0 0 0 0 0 0 0 0 0 0 0 0 0 0 0 0 0 0 0 0 0 0
0 0 0 -0 -0 -0 0 0 0 0 0 0 0 0 0 0 0 0 0 0 0 0 0 0 0 0 0 0 0 0 0 0 0 0 0 0 0 0 -0 0 -0 -0 0 0
0 0 0 0 0 0 0 0 0 0 0 0 0 0 0 0 0 0 0 0 0 0 0 0 0 -0 -0 0 0 -0 -0 -0 -0 0 0 0 0 0 0 0 0 0 0 0
0 0 -0 -0 0 0 0 0 0 0 0 0 0 0 0 0 0 0 0 0 0 0 0 0 -0 -0 0 0 -0 -0 -0 -0 0 0 0 0 0 0 0 0 0 0 0 0
-0 0 -0 -0 0 0 0 0 0 0 0 0 0 0 0 0 0 0 0 0 0 0 0 0 0 0 0 0 0 -0 0 0 0 0 0 0 0 0 0 0 0 0 -0 -0
-0 -0 -0 -0 0 0 0 0 0 0 0 0 0 0 0 0 0 0 0 0 0 0 0 0 0 0 0 0 0 0 0 0 0 0 0 0 0 0 0 0 -0 -0 -0 -0
-0 -0 0 -0 -0 0 0 0 0 0 0 0 0 0 0 0 0 0 0 0 0 0 0 0 0 0 0 0 0 0 0 0 0 0 0 0 0 0 0 0 0 0 0 0
0 -0 0 -0 -0 0 0 0 0 0 0 0 0 0 0 0 0 0 0 0 0 0 0 0 0 0 0 0 0 0 0 0 0 0 0 0 0 0 0 0 0 0 0 0
0 -0 0 0 -0 0 0 0 0 0 0 0 0 0 0 0 0 0 0 0 0 0 0 0 0 0 0 0 0 0 0 0 0 0 0 0 0 0 0 -0 -0 -0 0 0
0 0 -0 0 -0 -0 0 0 0 0 0 0 0 0 0 0 0 0 0 0 0 0 0 0 0 0 0 0 0 0 0 0 0 0 0 0 0 0 0 0 -0 0 0 0
0 0 -0 -0 -0 -0 0 0 0 0 0 0 0 0 0 0 0 0 0 0 0 0 0 0 0 0 0 0 0 0 0 0 0 0 0 0 0 0 0 0 0 0 0 0
0 0 0 0 -0 -0 0 0 0 0 0 0 0 0 -0 0 0 0 0 0 0 0 0 0 0 0 0 0 0 0 0 0 0 0 0 0 0 0 0 0 0 0 0 0
0 0 0 0 0 0 0 -0 0 0 0 0 0 0 0 0 0 0 -0 0 0 0 0 0 0 0 0 0 0 0 0 0 0 0 0 0 0 0 0 0 0 0 0 0
-0 -0 0 0 0 0 0 0 0 0 0 0 0 0 0 0 0 0 0 0 0 0 0 0 0 0 0 0 0 0 0 0 0 0 0 0 0 0 0 0 0 0 0 0
-0 -0 0 0 0 0 0 0 0 0 0 0 0 0 0 0 0 0 0 0 0 0 0 0 0 0 0 0 0 0 0 0 0 0 0 0 0 0 0 0 0 0 0 0
-0 -0 -0 -0 -0 -0 0 0 0 0 0 0 0 0 0 0 0 0 0 0 0 0 0 0 0 0 0 0 0 0 0 0 0 0 0 0 0 0 0 0 0 0 0 0
-0 -0 -0 -0 -0 0 0 0 0 0 0 0 0 0 0 0 0 0 0 0 0 0 0 0 0 0 0 0 0 0 0 0 0 0 0 0 0 0 0 0 0 0 0 0
Wind_Speed_500mb
33 45 45 50 55 48 35 24 15 18 31 26 22 21 28 37 37 48 30 7 31 46 64 80 76 71 64 46 10 146 124 113 100 100 95 88 84 76 68 63 57 51 46 41
37 40 37 30 26 21 10 11 18 23 27 26 25 44 39 37 36 40 32 13 40 59 79 88 83 74 75 41 42 129 128 113 107 103 94 93 90 79 71 63 55 47 40 36
16 26 43 4 6 31 29 22 15 16 7 13 32 43 34 38 39 49 44 40 54 57 86 96 78 63 73 79 41 79 106 107 104 99 99 94 89 79 67 58 50 45 44 40
17 29 6 3 3 26 27 36 26 19 23 36 47 71 74 60 57 50 46 54 61 56 85 121 114 99 115 107 103 102 101 105 102 100 97 90 81 72 64 55 50 49 43 39
10 16 19 5 18 28 30 38 12 10 46 48 65 62 65 57 73 47 47 69 80 79 96 120 127 98 109 81 111 106 98 95 94 96 90 83 79 70 62 56 52 48 42 39
8 12 9 11 35 63 11 12 17 48 51 48 55 11 10 58 61 37 61 83 103 95 102 115 122 103 101 92 91 92 92 92 89 85 85 83 76 66 58 52 55 48 44 37
14 10 1 25 37 54 10 15 67 70 68 56 22 11 46 62 64 78 79 97 108 107 114 117 116 117 115 90 86 87 88 87 83 80 78 74 70 61 55 55 54 48 45 39
9 8 8 41 16 12 22 56 59 76 75 70 29 63 79 90 85 86 96 106 118 117 115 114 113 111 108 99 92 89 85 83 85 83 77 69 67 61 56 54 53 50 44 42
4 8 12 47 25 51 58 57 51 78 95 83 68 82 91 89 66 85 97 102 114 98 107 97 101 108 110 98 100 96 98 97 89 81 71 63 65 60 58 51 50 46 40 40
12 3 21 45 46 59 65 60 60 64 62 48 66 73 78 77 79 88 100 108 117 109 97 97 104 108 108 107 100 97 94 92 87 83 76 64 58 55 57 53 51 37 33 25
13 9 40 2 52 65 56 53 50 64 63 81 85 79 82 84 97 106 98 101 98 103 104 101 106 105 97 94 91 96 95 88 82 77 73 69 61 57 56 49 26 36 33 30
6 27 14 30 49 50 44 42 47 62 77 88 92 85 93 81 98 99 92 102 97 100 103 98 95 92 85 86 88 90 88 80 75 73 71 71 72 72 58 47 32 24 25 31
10 34 28 31 24 32 32 32 47 62 72 92 87 86 89 91 91 94 100 94 91 95 96 89 89 89 86 82 85 88 88 82 75 69 66 65 62 58 58 46 40 36 39 46
18 20 14 21 19 20 22 26 47 56 77 84 90 90 95 95 90 97 94 92 95 88 85 80 80 82 77 69 73 69 70 66 63 64 64 60 53 50 53 58 59 58 52 48
14 10 10 7 16 16 18 26 47 59 59 72 86 95 98 93 85 81 81 86 86 85 79 76 69 66 64 65 67 64 65 65 66 68 65 64 63 63 59 60 60 58 56 51
7 7 8 10 16 17 18 25 41 48 56 61 68 79 85 88 86 83 79 77 77 73 73 73 76 71 72 70 67 61 61 74 76 72 66 61 56 55 54 52 49 46 45 43
10 2 3 7 11 18 22 28 35 42 47 53 58 61 69 79 86 86 80 75 74 78 72 72 77 69 63 68 68 66 70 67 61 56 60 57 53 51 51 43 35 31 45 42
6 2 2 7 13 19 21 27 34 40 47 50 55 57 59 64 72 71 72 70 72 76 67 58 62 65 69 66 67 72 63 64 64 61 56 54 49 41 32 33 43 49 44 37
6 8 9 13 18 20 24 27 33 38 42 46 52 62 63 64 64 65 73 74 69 68 61 56 53 59 66 69 63 63 63 63 61 57 53 50 42 35 38 41 43 42 38 32
11 8 10 16 21 27 32 31 34 41 43 45 47 51 58 60 61 61 60 66 67 65 63 59 60 74 62 47 51 52 56 56 55 57 52 48 46 42 38 37 37 35 27 21
9 11 15 19 25 26 26 33 42 42 41 42 44 43 46 44 40 48 54 57 56 55 56 65 58 50 46 49 46 44 42 46 52 48 45 43 42 43 36 30 27 22 18 17
15 12 15 24 28 28 28 41 38 38 47 44 35 33 35 29 26 28 41 45 39 36 54 52 49 50 44 37 33 37 48 44 40 38 32 32 37 39 33 28 25 24 21 16
16 17 19 27 35 33 26 28 30 45 31 26 26 33 35 32 21 41 46 43 42 45 45 43 51 40 40 36 37 32 35 37 29 33 37 35 33 32 27 25 22 21 18 16
23 23 22 27 36 36 35 29 29 43 37 31 23 25 24 26 20 31 51 40 31 31 35 44 42 42 41 38 37 38 36 34 34 36 31 28 27 28 26 27 25 20 18 15
22 24 27 28 29 27 33 31 30 37 39 27 21 27 24 18 15 31 48 32 26 30 30 42 43 38 34 36 39 40 37 32 31 37 35 29 18 16 23 28 22 19 15 19
25 25 27 24 23 29 31 34 32 33 33 33 24 20 22 21 18 25 45 36 33 24 29 51 49 38 30 22 32 37 39 35 31 32 43 39 28 24 19 30 28 21 20 19
24 22 24 25 25 26 25 29 31 29 31 31 32 28 27 25 22 21 35 41 34 21 34 54 54 40 37 25 17 18 20 24 28 33 43 45 32 30 24 22 19 16 18 16
Wind_Direction_500mb
253 261 269 270 272 286 273 288 250 298 278 299 307 307 311 323 325 321 326 358 166 176 178 165 172 174 151 174 45 159 154 157 158 160 158 153 148 147 143 145 147 146 143 137
290 274 268 276 35 352 307 278 278 269 263 256 304 311 307 303 307 309 298 252 153 145 157 149 160 158 165 137 35 126 152 148 150 150 149 150 149 144 149 150 149 146 142 137
279 323 307 153 42 350 292 270 269 270 311 335 301 292 273 282 285 281 274 180 131 136 134 140 143 156 144 166 132 134 138 140 146 150 149 150 144 147 150 145 140 136 130 129
290 305 282 130 184 318 285 287 288 294 296 284 281 274 273 260 264 273 286 180 162 143 131 126 126 127 129 138 153 147 140 145 150 150 151 147 141 144 142 137 134 126 124 117
297 311 273 67 342 322 326 304 251 321 306 295 285 260 255 246 237 244 203 164 151 137 131 131 135 140 138 145 137 142 140 145 153 155 148 141 142 138 135 135 127 122 117 113
295 302 294 349 328 324 311 265 2 320 306 309 313 188 225 197 202 222 153 138 142 129 136 135 139 150 138 136 138 132 141 148 151 148 143 141 138 135 133 125 119 118 117 119
311 279 111 352 339 332 3 313 318 315 311 308 312 176 126 147 159 156 154 122 131 121 122 135 142 142 140 133 131 138 147 148 143 141 138 134 135 130 129 121 115 118 116 111
325 288 323 359 342 8 294 302 307 310 312 310 283 121 119 130 136 132 128 124 129 129 124 134 141 141 135 136 140 146 143 138 135 135 135 134 125 123 115 111 112 112 116 116
260 279 348 345 298 319 325 313 319 320 321 333 110 116 122 131 139 138 126 118 128 130 131 127 127 139 135 136 144 144 141 139 138 131 129 124 116 113 111 108 108 113 120 114
330 106 341 318 338 332 341 332 330 342 337 68 81 99 117 119 119 120 123 120 126 124 124 129 132 136 137 142 147 144 137 133 133 131 126 122 117 119 114 114 119 119 108 105
259 306 324 222 337 335 349 349 5 15 37 63 74 76 93 103 111 114 112 120 127 127 128 125 132 136 144 147 144 140 138 136 133 130 131 131 134 141 133 135 130 112 106 109
289 317 288 296 334 348 358 6 28 25 59 77 79 78 89 93 111 128 120 123 120 122 127 132 139 143 144 144 147 140 137 136 135 138 141 142 139 130 130 133 141 136 104 116
269 314 319 336 340 1 16 28 53 59 69 85 88 86 92 97 102 105 110 118 125 130 135 136 137 140 145 147 144 145 141 141 142 143 144 144 144 142 135 132 132 129 119 113
329 338 323 1 354 29 47 64 80 83 81 90 95 97 94 95 99 104 106 113 120 124 129 137 139 138 142 143 144 138 138 141 141 142 142 141 140 137 135 131 124 114 112 114
357 7 346 37 38 61 74 88 88 89 90 90 98 101 104 101 100 101 110 117 121 123 128 130 129 131 135 132 128 127 133 137 136 134 132 130 128 124 121 116 110 112 115 113
25 14 56 95 74 83 100 99 97 97 102 103 101 99 103 108 112 113 116 119 120 122 127 130 133 136 136 133 133 131 122 125 125 125 126 119 115 119 116 118 124 127 120 111
201 309 42 106 105 112 107 114 115 114 114 114 111 114 114 111 111 113 114 120 124 128 132 135 136 138 140 143 139 136 127 128 127 129 133 132 128 135 137 135 135 135 118 113
35 115 124 136 133 127 127 125 127 129 125 125 128 124 123 125 116 115 123 125 126 128 129 133 138 142 142 141 139 137 136 137 139 140 140 140 145 142 134 126 126 126 119 112
75 92 110 132 143 145 138 140 134 134 134 131 130 128 127 127 130 130 134 133 127 121 121 135 139 141 139 135 138 142 141 141 140 140 137 135 135 129 118 109 110 108 112 111
112 96 125 134 139 148 143 141 139 128 129 134 132 134 133 132 135 140 141 138 137 129 132 131 134 135 128 130 141 149 148 142 138 136 140 140 137 130 121 112 109 117 125 117
140 112 133 135 142 142 143 143 139 134 128 122 117 117 122 124 132 137 136 136 137 136 132 131 129 129 132 144 147 148 149 145 139 141 143 140 142 136 126 127 135 132 120 118
146 141 142 146 141 138 142 137 131 134 133 127 136 134 122 124 113 131 137 129 124 125 137 130 136 139 141 142 142 137 135 136 142 145 138 132 137 138 139 143 138 138 144 143
150 147 149 155 148 141 157 144 145 142 132 134 134 142 150 153 147 142 143 143 147 147 150 152 146 141 143 136 145 150 145 145 147 143 139 142 149 151 154 151 150 157 167 153
137 142 140 153 156 145 155 159 153 155 139 136 127 149 154 153 138 154 146 150 158 153 156 160 147 143 148 154 148 147 152 157 155 151 151 155 166 171 177 174 170 174 166 177
138 139 147 149 154 160 154 150 162 163 156 153 153 158 150 172 165 162 167 165 167 169 173 167 162 164 163 175 168 170 170 173 176 173 166 162 181 179 187 181 171 171 161 151
161 155 147 147 145 151 157 156 164 165 160 165 164 165 174 195 186 186 189 188 186 181 176 174 168 162 157 164 178 184 189 190 189 174 169 168 184 202 187 181 187 196 193 194
173 167 161 159 169 167 168 176 173 165 176 182 179 181 179 196 200 197 193 192 193 181 176 175 177 166 157 166 183 193 193 193 192 190 185 180 185 193 206 187 183 180 173 173
Wind_Speed_850mb
33 45 45 50 55 48 35 24 15 18 31 26 22 21 28 37 37 48 30 7 31 46 64 80 76 71 64 46 10 146 124 113 100 100 95 88 84 76 68 63 57 51 46 41
37 40 37 30 26 21 10 11 18 23 27 26 25 44 39 37 36 40 32 13 40 59 79 88 83 74 75 41 42 129 128 113 107 103 94 93 90 79 71 63 55 47 40 36
16 26 43 4 6 31 29 22 15 16 7 13 32 43 34 38 39 49 44 40 54 57 86 96 78 63 73 79 41 79 106 107 104 99 99 94 89 79 67 58 50 45 44 40
17 29 6 3 3 26 27 36 26 19 23 36 47 71 74 60 57 50 46 54 61 56 85 121 114 99 115 107 103 102 101 105 102 100 97 90 81 72 64 55 50 49 43 39
10 16 19 5 18 28 30 38 12 10 46 48 65 62 65 57 73 47 47 69 80 79 96 120 127 98 109 81 111 106 98 95 94 96 90 83 79 70 62 56 52 48 42 39
8 12 9 11 35 63 11 12 17 48 51 48 55 11 10 58 61 37 61 83 103 95 102 115 122 103 101 92 91 92 92 92 89 85 85 83 76 66 58 52 55 48 44 37
14 10 1 25 37 54 10 15 67 70 68 56 22 11 46 62 64 78 79 97 108 107 114 117 116 117 115 90 86 87 88 87 83 80 78 74 70 61 55 55 54 48 45 39
9 8 8 41 16 12 22 56 59 76 75 70 29 63 79 90 85 86 96 106 118 117 115 114 113 111 108 99 92 89 85 83 85 83 77 69 67 61 56 54 53 50 44 42
4 8 12 47 25 51 58 57 51 78 95 83 68 82 91 89 66 85 97 102 114 98 107 97 101 108 110 98 100 96 98 97 89 81 71 63 65 60 58 51 50 46 40 40
12 3 21 45 46 59 65 60 60 64 62 48 66 73 78 77 79 88 100 108 117 109 97 97 104 108 108 107 100 97 94 92 87 83 76 64 58 55 57 53 51 37 33 25
13 9 40 2 52 65 56 53 50 64 63 81 85 79 82 84 97 106 98 101 98 103 104 101 106 105 97 94 91 96 95 88 82 77 73 69 61 57 56 49 26 36 33 30
6 27 14 30 49 50 44 42 47 62 77 88 92 85 93 81 98 99 92 102 97 100 103 98 95 92 85 86 88 90 88 80 75 73 71 71 72 72 58 47 32 24 25 31
10 34 28 31 24 32 32 32 47 62 72 92 87 86 89 91 91 94 100 94 91 95 96 89 89 89 86 82 85 88 88 82 75 69 66 65 62 58 58 46 40 36 39 46
18 20 14 21 19 20 22 26 47 56 77 84 90 90 95 95 90 97 94 92 95 88 85 80 80 82 77 69 73 69 70 66 63 64 64 60 53 50 53 58 59 58 52 48
14 10 10 7 16 16 18 26 47 59 59 72 86 95 98 93 85 81 81 86 86 85 79 76 69 66 64 65 67 64 65 65 66 68 65 64 63 63 59 60 60 58 56 51
7 7 8 10 16 17 18 25 41 48 56 61 68 79 85 88 86 83 79 77 77 73 73 73 76 71 72 70 67 61 61 74 76 72 66 61 56 55 54 52 49 46 45 43
10 2 3 7 11 18 22 28 35 42 47 53 58 61 69 79 86 86 80 75 74 78 72 72 77 69 63 68 68 66 70 67 61 56 60 57 53 51 51 43 35 31 45 42
6 2 2 7 13 19 21 27 34 40 47 50 55 57 59 64 72 71 72 70 72 76 67 58 62 65 69 66 67 72 63 64 64 61 56 54 49 41 32 33 43 49 44 37
6 8 9 13 18 20 24 27 33 38 42 46 52 62 63 64 64 65 73 74 69 68 61 56 53 59 66 69 63 63 63 63 61 57 53 50 42 35 38 41 43 42 38 32
11 8 10 16 21 27 32 31 34 41 43 45 47 51 58 60 61 61 60 66 67 65 63 59 60 74 62 47 51 52 56 56 55 57 52 48 46 42 38 37 37 35 27 21
9 11 15 19 25 26 26 33 42 42 41 42 44 43 46 44 40 48 54 57 56 55 56 65 58 50 46 49 46 44 42 46 52 48 45 43 42 43 36 30 27 22 18 17
15 12 15 24 28 28 28 41 38 38 47 44 35 33 35 29 26 28 41 45 39 36 54 52 49 50 44 37 33 37 48 44 40 38 32 32 37 39 33 28 25 24 21 16
16 17 19 27 35 33 26 28 30 45 31 26 26 33 35 32 21 41 46 43 42 45 45 43 51 40 40 36 37 32 35 37 29 33 37 35 33 32 27 25 22 21 18 16
23 23 22 27 36 36 35 29 29 43 37 31 23 25 24 26 20 31 51 40 31 31 35 44 42 42 41 38 37 38 36 34 34 36 31 28 27 28 26 27 25 20 18 15
22 24 27 28 29 27 33 31 30 37 39 27 21 27 24 18 15 31 48 32 26 30 30 42 43 38 34 36 39 40 37 32 31 37 35 29 18 16 23 28 22 19 15 19
25 25 27 24 23 29 31 34 32 33 33 33 24 20 22 21 18 25 45 36 33 24 29 51 49 38 30 22 32 37 39 35 31 32 43 39 28 24 19 30 28 21 20 19
24 22 24 25 25 26 25 29 31 29 31 31 32 28 27 25 22 21 35 41 34 21 34 54 54 40 37 25 17 18 20 24 28 33 43 45 32 30 24 22 19 16 18 16
Wind_Direction_850mb
253 261 269 270 272 286 273 288 250 298 278 299 307 307 311 323 325 321 326 358 166 176 178 165 172 174 151 174 45 159 154 157 158 160 158 153 148 147 143 145 147 146 143 137
290 274 268 276 35 352 307 278 278 269 263 256 304 311 307 303 307 309 298 252 153 145 157 149 160 158 165 137 35 126 152 148 150 150 149 150 149 144 149 150 149 146 142 137
279 323 307 153 42 350 292 270 269 270 311 335 301 292 273 282 285 281 274 180 131 136 134 140 143 156 144 166 132 134 138 140 146 150 149 150 144 147 150 145 140 136 130 129
290 305 282 130 184 318 285 287 288 294 296 284 281 274 273 260 264 273 286 180 162 143 131 126 126 127 129 138 153 147 140 145 150 150 151 147 141 144 142 137 134 126 124 117
297 311 273 67 342 322 326 304 251 321 306 295 285 260 255 246 237 244 203 164 151 137 131 131 135 140 138 145 137 142 140 145 153 155 148 141 142 138 135 135 127 122 117 113
295 302 294 349 328 324 311 265 2 320 306 309 313 188 225 197 202 222 153 138 142 129 136 135 139 150 138 136 138 132 141 148 151 148 143 141 138 135 133 125 119 118 117 119
311 279 111 352 339 332 3 313 318 315 311 308 312 176 126 147 159 156 154 122 131 121 122 135 142 142 140 133 131 138 147 148 143 141 138 134 135 130 129 121 115 118 116 111
325 288 323 359 342 8 294 302 307 310 312 310 283 121 119 130 136 132 128 124 129 129 124 134 141 141 135 136 140 146 143 138 135 135 135 134 125 123 115 111 112 112 116 116
260 279 348 345 298 319 325 313 319 320 321 333 110 116 122 131 139 138 126 118 128 130 131 127 127 139 135 136 144 144 141 139 138 131 129 124 116 113 111 108 108 113 120 114
330 106 341 318 338 332 341 332 330 342 337 68 81 99 117 119 119 120 123 120 126 124 124 129 132 136 137 142 147 144 137 133 133 131 126 122 117 119 114 114 119 119 108 105
259 306 324 222 337 335 349 349 5 15 37 63 74 76 93 103 111 114 112 120 127 127 128 125 132 136 144 147 144 140 138 136 133 130 131 131 134 141 133 135 130 112 106 109
289 317 288 296 334 348 358 6 28 25 59 77 79 78 89 93 111 128 120 123 120 122 127 132 139 143 144 144 147 140 137 136 135 138 141 142 139 130 130 133 141 136 104 116
269 314 319 336 340 1 16 28 53 59 69 85 88 86 92 97 102 105 110 118 125 130 135 136 137 140 145 147 144 145 141 141 142 143 144 144 144 142 135 132 132 129 119 113
329 338 323 1 354 29 47 64 80 83 81 90 95 97 94 95 99 104 106 113 120 124 129 137 139 138 142 143 144 138 138 141 141 142 142 141 140 137 135 131 124 114 112 114
357 7 346 37 38 61 74 88 88 89 90 90 98 101 104 101 100 101 110 117 121 123 128 130 129 131 135 132 128 127 133 137 136 134 132 130 128 124 121 116 110 112 115 113
25 14 56 95 74 83 100 99 97 97 102 103 101 99 103 108 112 113 116 119 120 122 127 130 133 136 136 133 133 131 122 125 125 125 126 119 115 119 116 118 124 127 120 111
201 309 42 106 105 112 107 114 115 114 114 114 111 114 114 111 111 113 114 120 124 128 132 135 136 138 140 143 139 136 127 128 127 129 133 132 128 135 137 135 135 135 118 113
35 115 124 136 133 127 127 125 127 129 125 125 128 124 123 125 116 115 123 125 126 128 129 133 138 142 142 141 139 137 136 137 139 140 140 140 145 142 134 126 126 126 119 112
75 92 110 132 143 145 138 140 134 134 134 131 130 128 127 127 130 130 134 133 127 121 121 135 139 141 139 135 138 142 141 141 140 140 137 135 135 129 118 109 110 108 112 111
112 96 125 134 139 148 143 141 139 128 129 134 132 134 133 132 135 140 141 138 137 129 132 131 134 135 128 130 141 149 148 142 138 136 140 140 137 130 121 112 109 117 125 117
140 112 133 135 142 142 143 143 139 134 128 122 117 117 122 124 132 137 136 136 137 136 132 131 129 129 132 144 147 148 149 145 139 141 143 140 142 136 126 127 135 132 120 118
146 141 142 146 141 138 142 137 131 134 133 127 136 134 122 124 113 131 137 129 124 125 137 130 136 139 141 142 142 137 135 136 142 145 138 132 137 138 139 143 138 138 144 143
150 147 149 155 148 141 157 144 145 142 132 134 134 142 150 153 147 142 143 143 147 147 150 152 146 141 143 136 145 150 145 145 147 143 139 142 149 151 154 151 150 157 167 153
137 142 140 153 156 145 155 159 153 155 139 136 127 149 154 153 138 154 146 150 158 153 156 160 147 143 148 154 148 147 152 157 155 151 151 155 166 171 177 174 170 174 166 177
138 139 147 149 154 160 154 150 162 163 156 153 153 158 150 172 165 162 167 165 167 169 173 167 162 164 163 175 168 170 170 173 176 173 166 162 181 179 187 181 171 171 161 151
161 155 147 147 145 151 157 156 164 165 160 165 164 165 174 195 186 186 189 188 186 181 176 174 168 162 157 164 178 184 189 190 189 174 169 168 184 202 187 181 187 196 193 194
173 167 161 159 169 167 168 176 173 165 176 182 179 181 179 196 200 197 193 192 193 181 176 175 177 166 157 166 183 193 193 193 192 190 185 180 185 193 206 187 183 180 173 173